Year,Month,Day,Hour,Minute,Value (Times are PST for windspeed in km/hr)
2008,10,06,00,00,0.00
2008,10,06,00,01,0.00
2008,10,06,00,02,0.00
2008,10,06,00,03,0.00
2008,10,06,00,04,0.00
2008,10,06,00,05,0.00
2008,10,06,00,06,0.00
2008,10,06,00,07,0.00
2008,10,06,00,08,0.00
2008,10,06,00,09,0.00
2008,10,06,00,10,0.00
2008,10,06,00,11,0.10
2008,10,06,00,12,0.00
2008,10,06,00,13,0.00
2008,10,06,00,14,0.00
2008,10,06,00,15,0.00
2008,10,06,00,16,0.10
2008,10,06,00,17,0.40
2008,10,06,00,18,0.90
2008,10,06,00,19,0.00
2008,10,06,00,20,2.30
2008,10,06,00,21,4.30
2008,10,06,00,22,2.40
2008,10,06,00,23,4.10
2008,10,06,00,24,3.40
2008,10,06,00,25,0.00
2008,10,06,00,26,0.00
2008,10,06,00,27,0.40
2008,10,06,00,28,0.00
2008,10,06,00,29,0.00
2008,10,06,00,30,0.00
2008,10,06,00,31,0.00
2008,10,06,00,32,0.00
2008,10,06,00,33,0.00
2008,10,06,00,34,0.00
2008,10,06,00,35,0.00
2008,10,06,00,36,0.00
2008,10,06,00,37,0.00
2008,10,06,00,38,0.00
2008,10,06,00,39,0.00
2008,10,06,00,40,0.00
2008,10,06,00,41,0.00
2008,10,06,00,42,0.00
2008,10,06,00,43,0.00
2008,10,06,00,44,0.00
2008,10,06,00,45,0.00
2008,10,06,00,46,0.00
2008,10,06,00,47,0.00
2008,10,06,00,48,0.00
2008,10,06,00,49,0.00
2008,10,06,00,50,0.00
2008,10,06,00,51,0.00
2008,10,06,00,52,0.00
2008,10,06,00,53,0.00
2008,10,06,00,54,0.00
2008,10,06,00,55,0.00
2008,10,06,00,56,0.00
2008,10,06,00,57,2.30
2008,10,06,00,58,0.00
2008,10,06,00,59,0.80
2008,10,06,01,00,3.80
2008,10,06,01,01,3.60
2008,10,06,01,02,0.20
2008,10,06,01,03,4.70
2008,10,06,01,04,4.50
2008,10,06,01,05,2.90
2008,10,06,01,06,5.70
2008,10,06,01,07,4.50
2008,10,06,01,08,3.40
2008,10,06,01,09,4.90
2008,10,06,01,10,5.10
2008,10,06,01,11,5.60
2008,10,06,01,12,5.40
2008,10,06,01,13,3.40
2008,10,06,01,14,4.80
2008,10,06,01,15,2.70
2008,10,06,01,16,3.00
2008,10,06,01,17,3.80
2008,10,06,01,18,3.70
2008,10,06,01,19,3.10
2008,10,06,01,20,2.30
2008,10,06,01,21,2.60
2008,10,06,01,22,0.80
2008,10,06,01,23,1.10
2008,10,06,01,24,3.20
2008,10,06,01,25,5.60
2008,10,06,01,26,4.10
2008,10,06,01,27,2.00
2008,10,06,01,28,4.60
2008,10,06,01,29,6.30
2008,10,06,01,30,6.70
2008,10,06,01,31,1.50
2008,10,06,01,32,0.10
2008,10,06,01,33,0.00
2008,10,06,01,34,0.60
2008,10,06,01,35,0.00
2008,10,06,01,36,0.00
2008,10,06,01,37,0.10
2008,10,06,01,38,1.60
2008,10,06,01,39,0.00
2008,10,06,01,40,0.00
2008,10,06,01,41,0.00
2008,10,06,01,42,0.00
2008,10,06,01,43,0.00
2008,10,06,01,44,0.00
2008,10,06,01,45,0.00
2008,10,06,01,46,0.00
2008,10,06,01,47,0.00
2008,10,06,01,48,0.00
2008,10,06,01,49,0.00
2008,10,06,01,50,0.00
2008,10,06,01,51,0.00
2008,10,06,01,52,0.00
2008,10,06,01,53,0.00
2008,10,06,01,54,0.10
2008,10,06,01,55,0.00
2008,10,06,01,56,0.00
2008,10,06,01,57,0.00
2008,10,06,01,58,0.00
2008,10,06,01,59,0.00
2008,10,06,02,00,0.30
2008,10,06,02,01,0.00
2008,10,06,02,02,1.50
2008,10,06,02,03,2.20
2008,10,06,02,04,0.90
2008,10,06,02,05,1.50
2008,10,06,02,06,5.30
2008,10,06,02,07,3.10
2008,10,06,02,08,2.00
2008,10,06,02,09,4.20
2008,10,06,02,10,4.00
2008,10,06,02,11,3.40
2008,10,06,02,12,4.40
2008,10,06,02,13,5.10
2008,10,06,02,14,4.80
2008,10,06,02,15,6.30
2008,10,06,02,16,5.90
2008,10,06,02,17,4.40
2008,10,06,02,18,4.90
2008,10,06,02,19,4.70
2008,10,06,02,20,6.10
2008,10,06,02,21,6.80
2008,10,06,02,22,4.40
2008,10,06,02,23,5.90
2008,10,06,02,24,3.80
2008,10,06,02,25,4.60
2008,10,06,02,26,3.10
2008,10,06,02,27,1.50
2008,10,06,02,28,3.90
2008,10,06,02,29,6.10
2008,10,06,02,30,5.50
2008,10,06,02,31,1.30
2008,10,06,02,32,1.90
2008,10,06,02,33,1.70
2008,10,06,02,34,1.00
2008,10,06,02,35,0.00
2008,10,06,02,36,0.00
2008,10,06,02,37,0.00
2008,10,06,02,38,0.00
2008,10,06,02,39,0.00
2008,10,06,02,40,0.00
2008,10,06,02,41,0.10
2008,10,06,02,42,0.00
2008,10,06,02,43,0.00
2008,10,06,02,44,0.00
2008,10,06,02,45,0.00
2008,10,06,02,46,0.00
2008,10,06,02,47,0.00
2008,10,06,02,48,0.00
2008,10,06,02,49,0.00
2008,10,06,02,50,0.00
2008,10,06,02,51,0.00
2008,10,06,02,52,0.00
2008,10,06,02,53,0.00
2008,10,06,02,54,0.00
2008,10,06,02,55,0.00
2008,10,06,02,56,0.00
2008,10,06,02,57,0.00
2008,10,06,02,58,0.00
2008,10,06,02,59,0.10
2008,10,06,03,00,0.00
2008,10,06,03,01,0.00
2008,10,06,03,02,0.00
2008,10,06,03,03,1.20
2008,10,06,03,04,0.30
2008,10,06,03,05,0.40
2008,10,06,03,06,0.00
2008,10,06,03,07,0.00
2008,10,06,03,08,0.00
2008,10,06,03,09,2.60
2008,10,06,03,10,3.60
2008,10,06,03,11,3.20
2008,10,06,03,12,2.80
2008,10,06,03,13,2.20
2008,10,06,03,14,2.20
2008,10,06,03,15,1.30
2008,10,06,03,16,0.80
2008,10,06,03,17,2.40
2008,10,06,03,18,1.80
2008,10,06,03,19,2.70
2008,10,06,03,20,3.10
2008,10,06,03,21,1.10
2008,10,06,03,22,3.10
2008,10,06,03,23,3.10
2008,10,06,03,24,2.90
2008,10,06,03,25,1.80
2008,10,06,03,26,1.70
2008,10,06,03,27,3.10
2008,10,06,03,28,1.50
2008,10,06,03,29,0.00
2008,10,06,03,30,1.10
2008,10,06,03,31,2.90
2008,10,06,03,32,0.20
2008,10,06,03,33,0.00
2008,10,06,03,34,0.00
2008,10,06,03,35,0.00
2008,10,06,03,36,0.10
2008,10,06,03,37,0.00
2008,10,06,03,38,0.00
2008,10,06,03,39,0.00
2008,10,06,03,40,0.10
2008,10,06,03,41,0.80
2008,10,06,03,42,0.30
2008,10,06,03,43,0.60
2008,10,06,03,44,2.60
2008,10,06,03,45,0.90
2008,10,06,03,46,3.60
2008,10,06,03,47,1.60
2008,10,06,03,48,2.40
2008,10,06,03,49,0.20
2008,10,06,03,50,5.20
2008,10,06,03,51,5.00
2008,10,06,03,52,6.90
2008,10,06,03,53,4.30
2008,10,06,03,54,5.60
2008,10,06,03,55,5.90
2008,10,06,03,56,5.90
2008,10,06,03,57,5.60
2008,10,06,03,58,5.40
2008,10,06,03,59,5.50
2008,10,06,04,00,2.80
2008,10,06,04,01,0.00
2008,10,06,04,02,0.40
2008,10,06,04,03,2.50
2008,10,06,04,04,0.20
2008,10,06,04,05,0.20
2008,10,06,04,06,0.00
2008,10,06,04,07,1.30
2008,10,06,04,08,1.00
2008,10,06,04,09,2.80
2008,10,06,04,10,0.70
2008,10,06,04,11,1.50
2008,10,06,04,12,0.00
2008,10,06,04,13,0.20
2008,10,06,04,14,0.00
2008,10,06,04,15,0.00
2008,10,06,04,16,0.70
2008,10,06,04,17,2.10
2008,10,06,04,18,0.00
2008,10,06,04,19,0.00
2008,10,06,04,20,0.50
2008,10,06,04,21,0.00
2008,10,06,04,22,0.00
2008,10,06,04,23,0.00
2008,10,06,04,24,0.10
2008,10,06,04,25,0.00
2008,10,06,04,26,0.00
2008,10,06,04,27,0.00
2008,10,06,04,28,0.10
2008,10,06,04,29,1.30
2008,10,06,04,30,6.20
2008,10,06,04,31,4.30
2008,10,06,04,32,4.50
2008,10,06,04,33,4.50
2008,10,06,04,34,4.70
2008,10,06,04,35,5.10
2008,10,06,04,36,4.80
2008,10,06,04,37,4.60
2008,10,06,04,38,4.10
2008,10,06,04,39,4.80
2008,10,06,04,40,4.50
2008,10,06,04,41,3.50
2008,10,06,04,42,5.10
2008,10,06,04,43,4.30
2008,10,06,04,44,5.20
2008,10,06,04,45,5.70
2008,10,06,04,46,4.30
2008,10,06,04,47,5.20
2008,10,06,04,48,6.00
2008,10,06,04,49,5.70
2008,10,06,04,50,5.80
2008,10,06,04,51,3.50
2008,10,06,04,52,3.10
2008,10,06,04,53,3.50
2008,10,06,04,54,3.40
2008,10,06,04,55,3.50
2008,10,06,04,56,4.70
2008,10,06,04,57,4.30
2008,10,06,04,58,3.30
2008,10,06,04,59,2.30
2008,10,06,05,00,4.70
2008,10,06,05,01,3.60
2008,10,06,05,02,0.10
2008,10,06,05,03,3.80
2008,10,06,05,04,4.20
2008,10,06,05,05,3.50
2008,10,06,05,06,2.50
2008,10,06,05,07,2.00
2008,10,06,05,08,4.50
2008,10,06,05,09,4.10
2008,10,06,05,10,4.20
2008,10,06,05,11,3.80
2008,10,06,05,12,4.20
2008,10,06,05,13,4.20
2008,10,06,05,14,4.50
2008,10,06,05,15,4.40
2008,10,06,05,16,2.50
2008,10,06,05,17,2.20
2008,10,06,05,18,0.10
2008,10,06,05,19,1.80
2008,10,06,05,20,2.80
2008,10,06,05,21,0.00
2008,10,06,05,22,1.90
2008,10,06,05,23,0.30
2008,10,06,05,24,2.40
2008,10,06,05,25,1.50
2008,10,06,05,26,1.30
2008,10,06,05,27,2.60
2008,10,06,05,28,0.20
2008,10,06,05,29,2.90
2008,10,06,05,30,3.20
2008,10,06,05,31,3.40
2008,10,06,05,32,0.90
2008,10,06,05,33,4.10
2008,10,06,05,34,2.60
2008,10,06,05,35,1.00
2008,10,06,05,36,4.30
2008,10,06,05,37,3.90
2008,10,06,05,38,3.80
2008,10,06,05,39,4.20
2008,10,06,05,40,5.20
2008,10,06,05,41,5.00
2008,10,06,05,42,3.10
2008,10,06,05,43,3.50
2008,10,06,05,44,2.20
2008,10,06,05,45,4.00
2008,10,06,05,46,3.60
2008,10,06,05,47,2.50
2008,10,06,05,48,3.50
2008,10,06,05,49,4.00
2008,10,06,05,50,4.20
2008,10,06,05,51,1.50
2008,10,06,05,52,6.10
2008,10,06,05,53,4.30
2008,10,06,05,54,5.00
2008,10,06,05,55,5.50
2008,10,06,05,56,5.00
2008,10,06,05,57,6.40
2008,10,06,05,58,7.50
2008,10,06,05,59,6.70
2008,10,06,06,00,6.80
2008,10,06,06,01,5.70
2008,10,06,06,02,5.80
2008,10,06,06,03,6.00
2008,10,06,06,04,6.00
2008,10,06,06,05,6.50
2008,10,06,06,06,8.00
2008,10,06,06,07,7.30
2008,10,06,06,08,6.10
2008,10,06,06,09,8.20
2008,10,06,06,10,6.10
2008,10,06,06,11,6.60
2008,10,06,06,12,6.90
2008,10,06,06,13,8.30
2008,10,06,06,14,8.10
2008,10,06,06,15,8.80
2008,10,06,06,16,7.30
2008,10,06,06,17,10.40
2008,10,06,06,18,7.90
2008,10,06,06,19,8.50
2008,10,06,06,20,7.50
2008,10,06,06,21,7.30
2008,10,06,06,22,10.80
2008,10,06,06,23,7.60
2008,10,06,06,24,5.20
2008,10,06,06,25,3.90
2008,10,06,06,26,4.90
2008,10,06,06,27,6.20
2008,10,06,06,28,6.80
2008,10,06,06,29,5.40
2008,10,06,06,30,8.20
2008,10,06,06,31,7.10
2008,10,06,06,32,3.80
2008,10,06,06,33,4.70
2008,10,06,06,34,5.40
2008,10,06,06,35,8.10
2008,10,06,06,36,7.20
2008,10,06,06,37,6.80
2008,10,06,06,38,4.70
2008,10,06,06,39,9.30
2008,10,06,06,40,6.00
2008,10,06,06,41,5.60
2008,10,06,06,42,6.90
2008,10,06,06,43,5.50
2008,10,06,06,44,3.00
2008,10,06,06,45,6.10
2008,10,06,06,46,4.60
2008,10,06,06,47,4.40
2008,10,06,06,48,5.40
2008,10,06,06,49,5.90
2008,10,06,06,50,7.20
2008,10,06,06,51,7.20
2008,10,06,06,52,6.40
2008,10,06,06,53,5.20
2008,10,06,06,54,6.30
2008,10,06,06,55,6.50
2008,10,06,06,56,5.10
2008,10,06,06,57,4.90
2008,10,06,06,58,3.60
2008,10,06,06,59,4.00
2008,10,06,07,00,4.70
2008,10,06,07,01,8.80
2008,10,06,07,02,6.70
2008,10,06,07,03,7.00
2008,10,06,07,04,7.20
2008,10,06,07,05,6.60
2008,10,06,07,06,9.60
2008,10,06,07,07,8.10
2008,10,06,07,08,4.70
2008,10,06,07,09,6.00
2008,10,06,07,10,8.70
2008,10,06,07,11,7.90
2008,10,06,07,12,7.30
2008,10,06,07,13,4.70
2008,10,06,07,14,9.70
2008,10,06,07,15,8.30
2008,10,06,07,16,7.30
2008,10,06,07,17,6.30
2008,10,06,07,18,6.80
2008,10,06,07,19,5.30
2008,10,06,07,20,3.80
2008,10,06,07,21,7.60
2008,10,06,07,22,6.70
2008,10,06,07,23,5.70
2008,10,06,07,24,5.20
2008,10,06,07,25,4.60
2008,10,06,07,26,4.70
2008,10,06,07,27,5.00
2008,10,06,07,28,4.30
2008,10,06,07,29,4.90
2008,10,06,07,30,5.20
2008,10,06,07,31,5.60
2008,10,06,07,32,4.60
2008,10,06,07,33,6.20
2008,10,06,07,34,4.20
2008,10,06,07,35,4.40
2008,10,06,07,36,3.70
2008,10,06,07,37,5.50
2008,10,06,07,38,4.80
2008,10,06,07,39,6.20
2008,10,06,07,40,5.10
2008,10,06,07,41,4.30
2008,10,06,07,42,4.50
2008,10,06,07,43,5.10
2008,10,06,07,44,5.90
2008,10,06,07,45,4.90
2008,10,06,07,46,6.20
2008,10,06,07,47,6.80
2008,10,06,07,48,6.30
2008,10,06,07,49,4.70
2008,10,06,07,50,5.40
2008,10,06,07,51,5.70
2008,10,06,07,52,7.20
2008,10,06,07,53,7.60
2008,10,06,07,54,5.50
2008,10,06,07,55,6.40
2008,10,06,07,56,6.80
2008,10,06,07,57,7.00
2008,10,06,07,58,5.90
2008,10,06,07,59,7.00
2008,10,06,08,00,5.00
2008,10,06,08,01,3.90
2008,10,06,08,02,1.80
2008,10,06,08,03,5.30
2008,10,06,08,04,5.80
2008,10,06,08,05,7.30
2008,10,06,08,06,5.60
2008,10,06,08,07,5.90
2008,10,06,08,08,3.90
2008,10,06,08,09,4.50
2008,10,06,08,10,4.80
2008,10,06,08,11,5.00
2008,10,06,08,12,1.20
2008,10,06,08,13,6.30
2008,10,06,08,14,9.30
2008,10,06,08,15,4.70
2008,10,06,08,16,4.50
2008,10,06,08,17,4.40
2008,10,06,08,18,5.80
2008,10,06,08,19,5.50
2008,10,06,08,20,5.00
2008,10,06,08,21,4.80
2008,10,06,08,22,4.00
2008,10,06,08,23,4.90
2008,10,06,08,24,6.60
2008,10,06,08,25,5.90
2008,10,06,08,26,6.10
2008,10,06,08,27,4.90
2008,10,06,08,28,6.80
2008,10,06,08,29,5.80
2008,10,06,08,30,6.40
2008,10,06,08,31,5.60
2008,10,06,08,32,5.80
2008,10,06,08,33,6.30
2008,10,06,08,34,6.80
2008,10,06,08,35,8.70
2008,10,06,08,36,8.70
2008,10,06,08,37,8.40
2008,10,06,08,38,9.00
2008,10,06,08,39,8.60
2008,10,06,08,40,6.00
2008,10,06,08,41,8.70
2008,10,06,08,42,8.00
2008,10,06,08,43,10.50
2008,10,06,08,44,7.80
2008,10,06,08,45,10.10
2008,10,06,08,46,6.50
2008,10,06,08,47,6.80
2008,10,06,08,48,5.10
2008,10,06,08,49,7.10
2008,10,06,08,50,6.10
2008,10,06,08,51,3.90
2008,10,06,08,52,6.20
2008,10,06,08,53,5.60
2008,10,06,08,54,6.80
2008,10,06,08,55,7.00
2008,10,06,08,56,7.60
2008,10,06,08,57,6.30
2008,10,06,08,58,9.00
2008,10,06,08,59,8.70
2008,10,06,09,00,8.00
2008,10,06,09,01,5.60
2008,10,06,09,02,6.00
2008,10,06,09,03,5.90
2008,10,06,09,04,4.00
2008,10,06,09,05,4.90
2008,10,06,09,06,4.90
2008,10,06,09,07,5.20
2008,10,06,09,08,5.50
2008,10,06,09,09,4.50
2008,10,06,09,10,6.20
2008,10,06,09,11,4.30
2008,10,06,09,12,7.10
2008,10,06,09,13,10.10
2008,10,06,09,14,5.10
2008,10,06,09,15,5.60
2008,10,06,09,16,4.10
2008,10,06,09,17,4.30
2008,10,06,09,18,3.60
2008,10,06,09,19,5.30
2008,10,06,09,20,3.70
2008,10,06,09,21,6.30
2008,10,06,09,22,7.20
2008,10,06,09,23,8.20
2008,10,06,09,24,10.90
2008,10,06,09,25,5.50
2008,10,06,09,26,7.90
2008,10,06,09,27,4.90
2008,10,06,09,28,4.10
2008,10,06,09,29,5.20
2008,10,06,09,30,5.40
2008,10,06,09,31,5.20
2008,10,06,09,32,6.00
2008,10,06,09,33,5.60
2008,10,06,09,34,6.80
2008,10,06,09,35,5.10
2008,10,06,09,36,6.50
2008,10,06,09,37,8.20
2008,10,06,09,38,6.20
2008,10,06,09,39,6.80
2008,10,06,09,40,8.20
2008,10,06,09,41,7.30
2008,10,06,09,42,5.50
2008,10,06,09,43,3.80
2008,10,06,09,44,5.20
2008,10,06,09,45,4.70
2008,10,06,09,46,4.80
2008,10,06,09,47,4.90
2008,10,06,09,48,6.90
2008,10,06,09,49,4.20
2008,10,06,09,50,4.30
2008,10,06,09,51,5.10
2008,10,06,09,52,1.60
2008,10,06,09,53,6.90
2008,10,06,09,54,8.90
2008,10,06,09,55,6.70
2008,10,06,09,56,7.30
2008,10,06,09,57,7.90
2008,10,06,09,58,8.80
2008,10,06,09,59,6.50
2008,10,06,10,00,6.30
2008,10,06,10,01,6.60
2008,10,06,10,02,8.10
2008,10,06,10,03,8.70
2008,10,06,10,04,11.80
2008,10,06,10,05,11.30
2008,10,06,10,06,8.30
2008,10,06,10,07,6.50
2008,10,06,10,08,7.80
2008,10,06,10,09,10.50
2008,10,06,10,10,10.60
2008,10,06,10,11,10.00
2008,10,06,10,12,5.10
2008,10,06,10,13,5.30
2008,10,06,10,14,6.20
2008,10,06,10,15,6.80
2008,10,06,10,16,7.00
2008,10,06,10,17,9.70
2008,10,06,10,18,7.70
2008,10,06,10,19,6.40
2008,10,06,10,20,7.50
2008,10,06,10,21,10.50
2008,10,06,10,22,5.60
2008,10,06,10,23,5.50
2008,10,06,10,24,6.20
2008,10,06,10,25,7.10
2008,10,06,10,26,6.10
2008,10,06,10,27,4.10
2008,10,06,10,28,6.40
2008,10,06,10,29,6.50
2008,10,06,10,30,6.10
2008,10,06,10,31,4.80
2008,10,06,10,32,5.50
2008,10,06,10,33,6.50
2008,10,06,10,34,9.40
2008,10,06,10,35,8.30
2008,10,06,10,36,9.20
2008,10,06,10,37,9.10
2008,10,06,10,38,6.90
2008,10,06,10,39,6.60
2008,10,06,10,40,4.40
2008,10,06,10,41,5.00
2008,10,06,10,42,5.20
2008,10,06,10,43,6.40
2008,10,06,10,44,6.50
2008,10,06,10,45,4.20
2008,10,06,10,46,6.70
2008,10,06,10,47,5.50
2008,10,06,10,48,2.70
2008,10,06,10,49,4.50
2008,10,06,10,50,5.50
2008,10,06,10,51,1.40
2008,10,06,10,52,3.70
2008,10,06,10,53,4.30
2008,10,06,10,54,4.80
2008,10,06,10,55,4.40
2008,10,06,10,56,2.10
2008,10,06,10,57,3.20
2008,10,06,10,58,5.60
2008,10,06,10,59,5.70
2008,10,06,11,00,3.00
2008,10,06,11,01,0.60
2008,10,06,11,02,4.00
2008,10,06,11,03,3.70
2008,10,06,11,04,4.20
2008,10,06,11,05,3.10
2008,10,06,11,06,3.00
2008,10,06,11,07,1.00
2008,10,06,11,08,1.40
2008,10,06,11,09,2.60
2008,10,06,11,10,3.70
2008,10,06,11,11,1.40
2008,10,06,11,12,4.20
2008,10,06,11,13,5.20
2008,10,06,11,14,5.10
2008,10,06,11,15,1.50
2008,10,06,11,16,0.10
2008,10,06,11,17,0.30
2008,10,06,11,18,3.90
2008,10,06,11,19,2.90
2008,10,06,11,20,0.60
2008,10,06,11,21,0.00
2008,10,06,11,22,1.30
2008,10,06,11,23,2.10
2008,10,06,11,24,0.10
2008,10,06,11,25,4.70
2008,10,06,11,26,7.00
2008,10,06,11,27,6.40
2008,10,06,11,28,6.00
2008,10,06,11,29,3.90
2008,10,06,11,30,5.30
2008,10,06,11,31,3.90
2008,10,06,11,32,6.80
2008,10,06,11,33,7.90
2008,10,06,11,34,6.30
2008,10,06,11,35,6.40
2008,10,06,11,36,7.90
2008,10,06,11,37,5.40
2008,10,06,11,38,7.00
2008,10,06,11,39,4.30
2008,10,06,11,40,3.60
2008,10,06,11,41,1.00
2008,10,06,11,42,2.20
2008,10,06,11,43,7.30
2008,10,06,11,44,7.30
2008,10,06,11,45,5.30
2008,10,06,11,46,1.60
2008,10,06,11,47,2.90
2008,10,06,11,48,2.30
2008,10,06,11,49,1.40
2008,10,06,11,50,3.30
2008,10,06,11,51,4.70
2008,10,06,11,52,7.10
2008,10,06,11,53,4.00
2008,10,06,11,54,0.00
2008,10,06,11,55,0.00
2008,10,06,11,56,0.00
2008,10,06,11,57,1.00
2008,10,06,11,58,3.20
2008,10,06,11,59,5.30
2008,10,06,12,00,4.90
2008,10,06,12,01,2.50
2008,10,06,12,02,1.40
2008,10,06,12,03,1.50
2008,10,06,12,04,5.50
2008,10,06,12,05,7.00
2008,10,06,12,06,2.00
2008,10,06,12,07,1.30
2008,10,06,12,08,2.90
2008,10,06,12,09,0.70
2008,10,06,12,10,0.00
2008,10,06,12,11,0.00
2008,10,06,12,12,2.40
2008,10,06,12,13,2.40
2008,10,06,12,14,4.30
2008,10,06,12,15,2.80
2008,10,06,12,16,1.30
2008,10,06,12,17,3.50
2008,10,06,12,18,4.40
2008,10,06,12,19,1.40
2008,10,06,12,20,2.50
2008,10,06,12,21,1.20
2008,10,06,12,22,0.90
2008,10,06,12,23,3.10
2008,10,06,12,24,0.00
2008,10,06,12,25,0.10
2008,10,06,12,26,3.20
2008,10,06,12,27,2.20
2008,10,06,12,28,3.80
2008,10,06,12,29,4.60
2008,10,06,12,30,3.80
2008,10,06,12,31,0.60
2008,10,06,12,32,0.00
2008,10,06,12,33,0.30
2008,10,06,12,34,4.10
2008,10,06,12,35,0.10
2008,10,06,12,36,1.10
2008,10,06,12,37,0.20
2008,10,06,12,38,2.70
2008,10,06,12,39,1.40
2008,10,06,12,40,0.00
2008,10,06,12,41,0.00
2008,10,06,12,42,1.70
2008,10,06,12,43,0.00
2008,10,06,12,44,2.60
2008,10,06,12,45,1.50
2008,10,06,12,46,0.00
2008,10,06,12,47,0.00
2008,10,06,12,48,0.00
2008,10,06,12,49,0.00
2008,10,06,12,50,3.00
2008,10,06,12,51,5.00
2008,10,06,12,52,5.10
2008,10,06,12,53,4.30
2008,10,06,12,54,4.80
2008,10,06,12,55,8.10
2008,10,06,12,56,7.70
2008,10,06,12,57,6.20
2008,10,06,12,58,6.30
2008,10,06,12,59,6.40
2008,10,06,13,00,9.50
2008,10,06,13,01,8.60
2008,10,06,13,02,10.80
2008,10,06,13,03,9.30
2008,10,06,13,04,8.10
2008,10,06,13,05,5.60
2008,10,06,13,06,6.20
2008,10,06,13,07,9.60
2008,10,06,13,08,9.30
2008,10,06,13,09,4.30
2008,10,06,13,10,6.10
2008,10,06,13,11,3.30
2008,10,06,13,12,0.10
2008,10,06,13,13,3.60
2008,10,06,13,14,5.90
2008,10,06,13,15,9.30
2008,10,06,13,16,8.70
2008,10,06,13,17,7.80
2008,10,06,13,18,5.70
2008,10,06,13,19,4.40
2008,10,06,13,20,3.70
2008,10,06,13,21,8.40
2008,10,06,13,22,8.10
2008,10,06,13,23,7.50
2008,10,06,13,24,7.30
2008,10,06,13,25,3.30
2008,10,06,13,26,4.30
2008,10,06,13,27,4.70
2008,10,06,13,28,6.00
2008,10,06,13,29,7.30
2008,10,06,13,30,6.70
2008,10,06,13,31,5.20
2008,10,06,13,32,5.50
2008,10,06,13,33,1.30
2008,10,06,13,34,3.80
2008,10,06,13,35,1.30
2008,10,06,13,36,0.00
2008,10,06,13,37,1.00
2008,10,06,13,38,1.00
2008,10,06,13,39,1.60
2008,10,06,13,40,2.70
2008,10,06,13,41,5.00
2008,10,06,13,42,4.90
2008,10,06,13,43,6.20
2008,10,06,13,44,4.30
2008,10,06,13,45,4.10
2008,10,06,13,46,5.70
2008,10,06,13,47,5.30
2008,10,06,13,48,1.30
2008,10,06,13,49,0.30
2008,10,06,13,50,1.30
2008,10,06,13,51,2.70
2008,10,06,13,52,0.00
2008,10,06,13,53,0.10
2008,10,06,13,54,0.40
2008,10,06,13,55,5.40
2008,10,06,13,56,5.10
2008,10,06,13,57,2.60
2008,10,06,13,58,2.60
2008,10,06,13,59,0.00
2008,10,06,14,00,0.00
2008,10,06,14,01,0.00
2008,10,06,14,02,3.00
2008,10,06,14,03,2.20
2008,10,06,14,04,2.90
2008,10,06,14,05,4.50
2008,10,06,14,06,2.50
2008,10,06,14,07,2.60
2008,10,06,14,08,0.50
2008,10,06,14,09,3.40
2008,10,06,14,10,4.10
2008,10,06,14,11,7.20
2008,10,06,14,12,7.60
2008,10,06,14,13,8.10
2008,10,06,14,14,6.80
2008,10,06,14,15,7.30
2008,10,06,14,16,6.50
2008,10,06,14,17,7.20
2008,10,06,14,18,6.20
2008,10,06,14,19,4.20
2008,10,06,14,20,6.30
2008,10,06,14,21,4.20
2008,10,06,14,22,8.10
2008,10,06,14,23,6.60
2008,10,06,14,24,7.60
2008,10,06,14,25,6.70
2008,10,06,14,26,6.20
2008,10,06,14,27,3.40
2008,10,06,14,28,1.70
2008,10,06,14,29,0.00
2008,10,06,14,30,0.60
2008,10,06,14,31,1.70
2008,10,06,14,32,3.30
2008,10,06,14,33,5.70
2008,10,06,14,34,3.90
2008,10,06,14,35,5.70
2008,10,06,14,36,6.70
2008,10,06,14,37,8.70
2008,10,06,14,38,8.90
2008,10,06,14,39,7.10
2008,10,06,14,40,4.70
2008,10,06,14,41,5.90
2008,10,06,14,42,3.40
2008,10,06,14,43,5.10
2008,10,06,14,44,5.90
2008,10,06,14,45,7.40
2008,10,06,14,46,7.50
2008,10,06,14,47,7.60
2008,10,06,14,48,7.70
2008,10,06,14,49,5.50
2008,10,06,14,50,0.30
2008,10,06,15,02,3.20
2008,10,06,15,03,3.50
2008,10,06,15,04,8.10
2008,10,06,15,05,5.70
2008,10,06,15,06,7.20
2008,10,06,15,07,7.30
2008,10,06,15,08,5.10
2008,10,06,15,09,5.50
2008,10,06,15,10,4.40
2008,10,06,15,11,3.50
2008,10,06,15,12,3.00
2008,10,06,15,13,3.50
2008,10,06,15,14,3.10
2008,10,06,15,15,2.50
2008,10,06,15,16,1.60
2008,10,06,15,17,3.50
2008,10,06,15,18,3.60
2008,10,06,15,19,0.60
2008,10,06,15,20,0.00
2008,10,06,15,21,0.00
2008,10,06,15,22,0.00
2008,10,06,15,23,0.00
2008,10,06,15,24,0.00
2008,10,06,15,25,0.00
2008,10,06,15,26,0.00
2008,10,06,15,27,0.00
2008,10,06,15,28,0.00
2008,10,06,15,29,0.00
2008,10,06,15,30,0.10
2008,10,06,15,31,0.00
2008,10,06,15,32,2.60
2008,10,06,15,33,2.70
2008,10,06,15,34,4.00
2008,10,06,15,35,2.90
2008,10,06,15,36,1.20
2008,10,06,15,37,0.80
2008,10,06,15,38,0.00
2008,10,06,15,39,1.60
2008,10,06,15,40,1.00
2008,10,06,15,41,3.90
2008,10,06,15,42,6.10
2008,10,06,15,43,6.10
2008,10,06,15,44,4.10
2008,10,06,15,45,3.10
2008,10,06,15,46,6.30
2008,10,06,15,47,4.70
2008,10,06,15,48,5.10
2008,10,06,15,49,4.60
2008,10,06,15,50,5.60
2008,10,06,15,51,5.10
2008,10,06,15,52,3.20
2008,10,06,15,53,2.60
2008,10,06,15,54,2.10
2008,10,06,15,55,0.90
2008,10,06,15,56,2.60
2008,10,06,15,57,2.40
2008,10,06,16,03,6.40
2008,10,06,16,04,3.90
2008,10,06,16,05,4.20
2008,10,06,16,06,1.00
2008,10,06,16,07,0.10
2008,10,06,16,08,0.00
2008,10,06,16,09,0.00
2008,10,06,16,10,0.00
2008,10,06,16,11,0.00
2008,10,06,16,12,2.00
2008,10,06,16,13,1.70
2008,10,06,16,14,3.20
2008,10,06,16,15,4.20
2008,10,06,16,16,3.30
2008,10,06,16,17,0.60
2008,10,06,16,18,2.90
2008,10,06,16,19,2.90
2008,10,06,16,20,1.20
2008,10,06,16,21,0.00
2008,10,06,16,22,0.00
2008,10,06,16,23,0.00
2008,10,06,16,24,0.20
2008,10,06,16,25,0.10
2008,10,06,16,26,3.00
2008,10,06,16,27,0.30
2008,10,06,16,28,5.00
2008,10,06,16,29,3.70
2008,10,06,16,30,1.70
2008,10,06,16,31,0.00
2008,10,06,16,32,0.00
2008,10,06,16,33,0.30
2008,10,06,16,34,1.70
2008,10,06,16,35,0.90
2008,10,06,16,36,3.10
2008,10,06,16,37,4.20
2008,10,06,16,38,4.70
2008,10,06,16,39,3.70
2008,10,06,16,40,2.80
2008,10,06,16,41,2.00
2008,10,06,16,42,1.20
2008,10,06,16,43,0.00
2008,10,06,16,44,0.20
2008,10,06,16,45,0.90
2008,10,06,16,46,0.00
2008,10,06,16,47,0.10
2008,10,06,16,48,3.70
2008,10,06,16,49,1.50
2008,10,06,16,50,2.00
2008,10,06,16,51,2.30
2008,10,06,16,52,1.00
2008,10,06,16,53,1.00
2008,10,06,16,54,1.00
2008,10,06,16,55,2.80
2008,10,06,16,56,2.50
2008,10,06,16,57,4.30
2008,10,06,16,58,3.50
2008,10,06,16,59,3.50
2008,10,06,17,00,4.80
2008,10,06,17,01,1.70
2008,10,06,17,02,0.00
2008,10,06,17,03,0.00
2008,10,06,17,04,2.90
2008,10,06,17,05,3.80
2008,10,06,17,06,4.60
2008,10,06,17,07,4.60
2008,10,06,17,08,5.00
2008,10,06,17,09,4.50
2008,10,06,17,10,4.70
2008,10,06,17,11,4.60
2008,10,06,17,12,4.70
2008,10,06,17,13,5.20
2008,10,06,17,14,3.90
2008,10,06,17,15,4.10
2008,10,06,17,16,4.10
2008,10,06,17,17,4.00
2008,10,06,17,18,3.40
2008,10,06,17,19,4.70
2008,10,06,17,20,6.30
2008,10,06,17,21,5.80
2008,10,06,17,22,5.10
2008,10,06,17,23,6.60
2008,10,06,17,24,6.40
2008,10,06,17,25,4.10
2008,10,06,17,26,3.60
2008,10,06,17,27,3.90
2008,10,06,17,28,6.90
2008,10,06,17,29,6.50
2008,10,06,17,30,5.10
2008,10,06,17,31,5.30
2008,10,06,17,32,6.00
2008,10,06,17,33,4.70
2008,10,06,17,34,0.10
2008,10,06,17,35,0.00
2008,10,06,17,36,5.10
2008,10,06,17,37,7.20
2008,10,06,17,38,6.20
2008,10,06,17,39,6.30
2008,10,06,17,40,4.50
2008,10,06,17,41,5.70
2008,10,06,17,42,5.80
2008,10,06,17,43,4.30
2008,10,06,17,44,3.50
2008,10,06,17,45,4.10
2008,10,06,17,46,5.40
2008,10,06,17,47,3.00
2008,10,06,17,48,0.00
2008,10,06,17,49,3.00
2008,10,06,17,50,4.90
2008,10,06,17,51,3.90
2008,10,06,17,52,3.30
2008,10,06,17,53,0.40
2008,10,06,17,54,2.80
2008,10,06,17,55,0.80
2008,10,06,17,56,2.80
2008,10,06,17,57,3.50
2008,10,06,17,58,3.40
2008,10,06,17,59,3.60
2008,10,06,18,00,1.70
2008,10,06,18,01,2.70
2008,10,06,18,02,5.20
2008,10,06,18,03,4.90
2008,10,06,18,04,4.30
2008,10,06,18,05,4.70
2008,10,06,18,06,6.00
2008,10,06,18,07,3.70
2008,10,06,18,08,3.50
2008,10,06,18,09,3.10
2008,10,06,18,10,4.40
2008,10,06,18,11,3.70
2008,10,06,18,12,2.00
2008,10,06,18,13,4.80
2008,10,06,18,14,4.10
2008,10,06,18,15,0.90
2008,10,06,18,16,1.30
2008,10,06,18,17,2.60
2008,10,06,18,18,3.70
2008,10,06,18,19,5.00
2008,10,06,18,20,4.30
2008,10,06,18,21,3.70
2008,10,06,18,22,3.00